Location: Unspecified
(0.0000°N, 0.0000°E)
Time: 22:28:18
(UTC+00:00)

AO-73 - Pass Details

Date: 27 October 2019
Orbit: 583 x 662 km, 97.6° (Epoch: 12 November)

Event Time Altitude Azimuth Distance (km) Brightness Sun altitude
Rises 18:09:42 0° 171° (S) 2,809 ? -6.3°
Reaches altitude 10° 18:11:50 10° 172° (S) 1,911 ? -6.8°
Maximum altitude 18:15:59 80° 259° (W) 605 ? -7.8°
Drops below altitude 10° 18:20:10 10° 346° (NNW) 1,935 ? -8.8°
Sets 18:22:21 0° 347° (NNW) 2,847 ? -9.4°
